This demonstration page uses our WeatherBlox Daily Observations layout. Learn more.

Left ArrowRight Arrow

39.51506, -84.39828

Hourly Observations for March 30, 2021

Temp ( °F °C ) Dew Point ( °F °C ) Humidity (%) Winds ( mph kmh ) Pressure ( in mb ) Visibility ( mi km ) Precip ( " mm )
12:15 am 00:15 Clear 44 6.4 32 0.2 65 65 S 5 7 30.13 1020 10 16 N/A
12:35 am 00:35 Clear 42 5.6 32 0.1 68 68 N N/A 30.13 1020 10 16 N/A
1:15 am 01:15 Clear 41 4.8 34 1.1 77 77 N N/A 30.12 1020 10 16 N/A
1:35 am 01:35 Clear 41 5.2 33 0.7 73 73 N N/A 30.11 1020 10 16 N/A
1:55 am 01:55 Clear 41 5.1 33 0.4 72 72 SW 3 6 30.11 1020 10 16 N/A
2:15 am 02:15 Clear 43 6 32 -0.1 65 65 N N/A 30.11 1020 10 16 N/A
2:35 am 02:35 Clear 41 5.2 33 0.7 73 73 N N/A 30.11 1020 10 16 N/A
2:55 am 02:55 Clear 40 4.3 32 0.1 74 74 N N/A 30.11 1020 10 16 N/A
3:15 am 03:15 Clear 42 5.6 32 0.2 69 69 N N/A 30.11 1020 10 16 N/A
3:35 am 03:35 Clear 39 3.9 33 0.5 79 79 N N/A 30.11 1020 10 16 N/A
3:55 am 03:55 Clear 38 3.3 33 0.8 84 84 N N/A 30.12 1020 10 16 N/A
4:15 am 04:15 Clear 40 4.3 31 -0.5 71 71 N N/A 30.10 1019 10 16 N/A
4:35 am 04:35 Clear 37 2.5 33 0.6 87 87 N N/A 30.11 1020 10 16 N/A
4:55 am 04:55 Clear 37 2.5 33 0.5 87 87 N N/A 30.11 1020 10 16 N/A
5:15 am 05:15 Clear 38 3.4 33 0.3 80 80 N N/A 30.11 1020 10 16 N/A
5:35 am 05:35 Clear 36 2.3 33 0.8 90 90 N N/A 30.11 1020 10 16 N/A
5:55 am 05:55 Clear 36 2.4 34 1.3 93 93 N N/A 30.11 1020 10 16 N/A
6:15 am 06:15 Clear 36 2 34 1.2 95 95 N N/A 30.11 1020 10 16 N/A
6:35 am 06:35 Clear 33 0.7 32 0.2 97 97 N N/A 30.13 1020 10 16 N/A
6:55 am 06:55 Clear 33 0.8 33 0.5 98 98 N N/A 30.13 1020 10 16 N/A
7:15 am 07:15 Clear 34 1 32 0.2 94 94 N N/A 30.13 1020 10 16 N/A
7:35 am 07:35 Sunny 33 0.5 32 -0.1 96 96 N N/A 30.13 1020 10 16 N/A
7:55 am 07:55 Sunny 34 1.3 33 0.7 96 96 SW 3 6 30.13 1020 10 16 N/A
8:15 am 08:15 Sunny 38 3.1 35 1.5 89 89 W 5 7 30.12 1020 10 16 N/A
8:35 am 08:35 Sunny 46 7.6 35 1.5 66 66 SSW 10 17 30.11 1019 10 16 N/A
8:55 am 08:55 Sunny 50 10.1 32 0.2 51 51 SSW 15 24 30.10 1019 10 16 N/A
9:15 am 09:15 Sunny 53 11.4 32 0.1 46 46 SW 15 24 30.09 1019 10 16 N/A
9:35 am 09:35 Sunny 54 12.3 33 0.3 44 44 SSW 15 24 30.08 1019 10 16 N/A
9:55 am 09:55 Sunny 56 13.1 33 0.6 43 43 SSW 16 26 30.07 1018 10 16 N/A
10:15 am 10:15 Sunny 56 13.2 33 0.6 42 42 SSW 15 24 30.07 1018 10 16 N/A
10:35 am 10:35 Sunny 57 13.9 34 0.9 41 41 SW 16 26 30.07 1018 10 16 N/A
10:55 am 10:55 Sunny 59 15.1 35 1.5 40 40 SSW 13 20 30.07 1018 10 16 N/A
11:15 am 11:15 Sunny 62 16.6 35 1.8 37 37 SW 21 33 30.07 1018 10 16 N/A
11:35 am 11:35 Sunny 63 17.1 34 1.3 35 35 SW 25 41 30.07 1018 10 16 N/A
11:55 am 11:55 Sunny 64 17.8 35 1.4 33 33 SW 22 35 30.06 1018 10 16 N/A
12:15 pm 12:15 Sunny 65 18.3 35 1.6 33 33 SW 24 39 30.05 1018 10 16 N/A
12:35 pm 12:35 Sunny 66 18.9 35 1.8 32 32 SW 23 37 30.04 1017 10 16 N/A
12:55 pm 12:55 Sunny 67 19.3 36 2 32 32 SSW 21 33 30.03 1017 10 16 N/A
1:15 pm 13:15 Sunny 67 19.6 34 1 29 29 SW 23 37 30.02 1016 10 16 N/A
1:35 pm 13:35 Sunny 68 20 35 1.6 29 29 SSW 20 31 30.00 1016 10 16 N/A
1:55 pm 13:55 Sunny 69 20.6 36 2.3 30 30 SW 20 31 30.00 1016 10 16 N/A
2:15 pm 14:15 Sunny 70 21.2 36 2.4 29 29 SW 18 30 29.99 1016 10 16 N/A
2:35 pm 14:35 Sunny 71 21.8 38 3.2 30 30 SSW 23 37 29.98 1015 10 16 N/A
2:55 pm 14:55 Sunny 72 22.1 38 3.1 29 29 SSW 21 33 29.96 1015 10 16 N/A
3:15 pm 15:15 Sunny 73 22.5 37 2.5 27 27 SW 22 35 29.95 1014 10 16 N/A
3:35 pm 15:35 Sunny 72 22.4 37 3 28 28 SSW 24 39 29.94 1014 10 16 N/A
3:55 pm 15:55 Sunny 72 22.4 37 2.7 27 27 SW 21 33 29.93 1014 10 16 N/A
4:15 pm 16:15 Sunny 74 23.2 37 2.8 26 26 SSW 23 37 29.93 1013 10 16 N/A
4:35 pm 16:35 Sunny 73 22.9 37 2.5 26 26 SSW 22 35 29.92 1013 10 16 N/A
4:55 pm 16:55 Sunny 74 23.4 38 3.1 27 27 SSW 21 33 29.91 1013 10 16 N/A
5:15 pm 17:15 Sunny 73 22.9 37 3 27 27 SSW 17 28 29.91 1013 10 16 N/A
5:35 pm 17:35 Sunny 74 23.6 38 3.3 27 27 SW 17 28 29.90 1012 10 16 N/A
5:55 pm 17:55 Sunny 73 22.7 37 2.5 27 27 SSW 22 35 29.89 1012 10 16 N/A
6:15 pm 18:15 Sunny 73 22.6 37 2.7 27 27 SSW 20 31 29.88 1012 10 16 N/A
6:35 pm 18:35 Sunny 73 22.7 37 3 28 28 SSW 23 37 29.86 1011 10 16 N/A
6:55 pm 18:55 Sunny 72 22.4 37 2.6 27 27 SW 17 28 29.87 1011 10 16 N/A
7:15 pm 19:15 Sunny 71 21.4 38 3.1 30 30 SSW 20 31 29.87 1012 10 16 N/A
7:35 pm 19:35 Sunny 69 20.8 38 3.4 32 32 SW 13 20 29.88 1012 10 16 N/A
7:55 pm 19:55 Sunny 70 21.3 37 3 30 30 SW 20 31 29.89 1012 10 16 N/A
8:15 pm 20:15 Clear 69 20.6 38 3.5 33 33 SW 10 17 29.89 1012 10 16 N/A
8:35 pm 20:35 Mostly Cloudy 69 20.6 40 4.2 34 34 SSW 13 20 29.89 1012 10 16 N/A
8:55 pm 20:55 Clear 69 20.3 41 4.8 36 36 SSW 13 20 29.89 1012 10 16 N/A
9:15 pm 21:15 Clear 68 20 41 5.2 38 38 SW 12 19 29.89 1012 10 16 N/A
9:35 pm 21:35 Partly Cloudy 68 20.1 42 5.5 39 39 SW 10 17 29.91 1013 10 16 N/A
9:55 pm 21:55 Cloudy with Light Rain 64 17.7 46 7.6 52 52 WSW 8 13 29.92 1013 10 16 N/A
10:15 pm 22:15 Cloudy with Light Rain 64 17.7 46 7.6 52 52 WSW 12 19 29.92 1013 10 16 N/A
10:35 pm 22:35 Cloudy 63 17.3 46 7.9 54 54 SW 7 11 29.92 1013 10 16 N/A
10:55 pm 22:55 Cloudy 63 17.3 46 7.6 53 53 SW 9 15 29.93 1014 10 16 N/A
11:15 pm 23:15 Cloudy with Light Rain 64 17.9 48 8.8 55 55 WSW 23 37 29.94 1014 10 16 N/A
11:35 pm 23:35 Cloudy 62 16.7 51 10.5 67 67 SW 16 26 29.95 1014 10 16 N/A
11:55 pm 23:55 Cloudy with Light Rain 62 16.4 52 11 71 71 SW 18 30 29.95 1014 10 16 N/A

Powered by AerisWeather